When you browse on this site, cookies collect data to enhance your experience and personalize the content and advertising you see.
Visit our Privacy Policy to learn more. By continuing to use the site, you agree to this use of cookies and data.
  • In Hungary
  • List of Countries
  • For 7 days
  • Water Temperature
  • Weather Map
  • News
  • Weather Widgets
  • user-avatar
    Login

    Hourly Weather Spataevo

    Today, 9 December, Monday

    Time Temperature Precipitation Wind Pressure Humidity
    00:00 +5°C° 0 mm 5 mps 743 mmHg 52%
    01:00 +5°C° 0 mm 5 mps 742 mmHg 53%
    02:00 +5°C° 0 mm 5 mps 742 mmHg 53%
    03:00 +5°C° 0 mm 4 mps 742 mmHg 54%
    04:00 +4°C° 0 mm 4 mps 742 mmHg 55%
    05:00 +4°C° 0 mm 4 mps 741 mmHg 56%
    06:00 +4°C° 0 mm 3 mps 741 mmHg 57%
    07:00 +4°C° 0 mm 3 mps 741 mmHg 57%
    08:00 +3°C° 0 mm 3 mps 741 mmHg 58%
    09:00 +5°C° 0 mm 3 mps 741 mmHg 53%
    10:00 +8°C° 0 mm 3 mps 741 mmHg 47%
    11:00 +9°C° 0 mm 3 mps 741 mmHg 42%
    12:00 +10°C° 0 mm 2 mps 741 mmHg 40%
    13:00 +12°C° 0 mm 2 mps 740 mmHg 37%
    14:00 +13°C° 0 mm 2 mps 740 mmHg 35%
    15:00 +12°C° 0 mm 2 mps 740 mmHg 38%
    16:00 +10°C° 0 mm 2 mps 740 mmHg 41%
    17:00 +9°C° 0 mm 2 mps 740 mmHg 45%
    18:00 +10°C° 0 mm 1 mps 740 mmHg 45%
    19:00 +9°C° 0 mm 1 mps 740 mmHg 45%
    20:00 +9°C° 0 mm 1 mps 740 mmHg 45%
    21:00 +9°C° 0 mm 1 mps 740 mmHg 45%
    22:00 +9°C° 0 mm 1 mps 741 mmHg 45%
    23:00 +9°C° 0 mm 1 mps 741 mmHg 45%

    Tomorrow, 10 December, Tuesday

    Time Temperature Precipitation Wind Pressure Humidity
    00:00 +9°C° 0 mm 1 mps 741 mmHg 46%
    01:00 +8°C° 0 mm 1 mps 741 mmHg 47%
    02:00 +8°C° 0 mm 1 mps 741 mmHg 49%
    03:00 +8°C° 0 mm 1 mps 741 mmHg 48%
    04:00 +7°C° 0 mm 2 mps 741 mmHg 47%
    05:00 +8°C° 0 mm 3 mps 741 mmHg 46%
    06:00 +7°C° 0 mm 2 mps 741 mmHg 47%
    07:00 +7°C° 0 mm 2 mps 741 mmHg 48%
    08:00 +8°C° 0 mm 1 mps 741 mmHg 49%
    09:00 +9°C° 0 mm 1 mps 742 mmHg 45%
    10:00 +11°C° 0 mm 1 mps 742 mmHg 40%
    11:00 +13°C° 0 mm 1 mps 742 mmHg 35%
    12:00 +14°C° 0 mm 2 mps 742 mmHg 36%
    13:00 +14°C° 0 mm 2 mps 742 mmHg 37%
    14:00 +15°C° 0 mm 2 mps 742 mmHg 37%
    15:00 +14°C° 0 mm 2 mps 742 mmHg 44%
    16:00 +13°C° 0 mm 2 mps 742 mmHg 51%
    17:00 +11°C° 0 mm 1 mps 742 mmHg 57%
    18:00 +11°C° 0 mm 1 mps 742 mmHg 62%
    19:00 +10°C° 0 mm 1 mps 742 mmHg 66%
    20:00 +10°C° 0 mm 1 mps 742 mmHg 71%
    21:00 +9°C° 0 mm 1 mps 742 mmHg 73%
    22:00 +9°C° 0 mm 1 mps 742 mmHg 75%
    23:00 +8°C° 0 mm 2 mps 742 mmHg 77%

    Day after tomorrow, 11 December, Wednesday

    Time Temperature Precipitation Wind Pressure Humidity
    00:00 +8°C° 0 mm 1 mps 742 mmHg 79%
    01:00 +8°C° 0 mm 1 mps 742 mmHg 81%
    02:00 +7°C° 0 mm 1 mps 742 mmHg 83%
    03:00 +7°C° 0 mm 1 mps 742 mmHg 84%
    04:00 +6°C° 0 mm 0 mps 742 mmHg 86%
    05:00 +5°C° 0 mm 0 mps 742 mmHg 87%
    06:00 +5°C° 0 mm 0 mps 742 mmHg 86%
    07:00 +5°C° 0 mm 0 mps 742 mmHg 86%
    08:00 +6°C° 0 mm 0 mps 742 mmHg 85%
    09:00 +7°C° 0 mm 0 mps 742 mmHg 79%
    10:00 +8°C° 0 mm 0 mps 743 mmHg 73%
    11:00 +10°C° 0 mm 0 mps 743 mmHg 66%
    12:00 +10°C° 0 mm 0 mps 742 mmHg 64%
    13:00 +12°C° 0 mm 1 mps 742 mmHg 61%
    14:00 +12°C° 0 mm 1 mps 741 mmHg 58%
    15:00 +11°C° 0 mm 1 mps 741 mmHg 60%
    16:00 +11°C° 0 mm 1 mps 741 mmHg 63%
    17:00 +9°C° 0 mm 2 mps 741 mmHg 65%
    18:00 +9°C° 0 mm 2 mps 741 mmHg 67%
    19:00 +8°C° 0 mm 2 mps 741 mmHg 68%
    20:00 +8°C° 0 mm 2 mps 741 mmHg 70%
    21:00 +8°C° 0 mm 1 mps 741 mmHg 71%
    22:00 +8°C° 0 mm 1 mps 741 mmHg 71%
    23:00 +7°C° 0 mm 1 mps 741 mmHg 72%

    12 December, Thursday

    Time Temperature Precipitation Wind Pressure Humidity
    00:00 +7°C° 0 mm 1 mps 741 mmHg 72%
    01:00 +7°C° 0 mm 1 mps 741 mmHg 72%
    02:00 +7°C° 0 mm 1 mps 741 mmHg 72%
    03:00 +7°C° 0.4 mm 1 mps 741 mmHg 77%
    04:00 +7°C° 0.4 mm 1 mps 741 mmHg 82%
    05:00 +7°C° 0.4 mm 1 mps 740 mmHg 87%
    06:00 +7°C° 0.1 mm 1 mps 741 mmHg 87%
    07:00 +6°C° 0.1 mm 2 mps 741 mmHg 87%
    08:00 +6°C° 0.1 mm 2 mps 741 mmHg 88%
    09:00 +7°C° 0 mm 2 mps 741 mmHg 83%
    10:00 +8°C° 0 mm 2 mps 741 mmHg 79%
    11:00 +10°C° 0 mm 1 mps 741 mmHg 75%
    12:00 +8°C° 0.2 mm 2 mps 741 mmHg 77%
    13:00 +8°C° 0.2 mm 2 mps 741 mmHg 79%
    14:00 +8°C° 0.2 mm 3 mps 740 mmHg 81%
    15:00 +8°C° 0.1 mm 2 mps 740 mmHg 82%
    16:00 +8°C° 0.1 mm 2 mps 741 mmHg 82%
    17:00 +9°C° 0.1 mm 1 mps 741 mmHg 82%
    18:00 +9°C° 0 mm 1 mps 741 mmHg 82%
    19:00 +8°C° 0 mm 2 mps 741 mmHg 82%
    20:00 +8°C° 0 mm 2 mps 741 mmHg 82%
    21:00 +7°C° 0 mm 2 mps 741 mmHg 84%
    22:00 +7°C° 0 mm 2 mps 741 mmHg 86%
    23:00 +5°C° 0 mm 3 mps 741 mmHg 88%

    13 December, Friday

    Time Temperature Precipitation Wind Pressure Humidity
    00:00 +5°C° 0 mm 2 mps 741 mmHg 89%
    01:00 +5°C° 0 mm 2 mps 741 mmHg 90%
    02:00 +6°C° 0 mm 1 mps 741 mmHg 91%
    03:00 +4°C° 0 mm 2 mps 740 mmHg 90%
    04:00 +4°C° 0 mm 2 mps 740 mmHg 90%
    05:00 +4°C° 0 mm 2 mps 740 mmHg 90%
    06:00 +4°C° 0 mm 2 mps 740 mmHg 90%
    07:00 +5°C° 0 mm 1 mps 740 mmHg 90%
    08:00 +5°C° 0 mm 1 mps 740 mmHg 90%
    09:00 +6°C° 0 mm 1 mps 740 mmHg 82%
    10:00 +8°C° 0 mm 1 mps 740 mmHg 74%
    11:00 +10°C° 0 mm 1 mps 741 mmHg 66%
    12:00 +10°C° 0 mm 0 mps 740 mmHg 62%
    13:00 +10°C° 0 mm 0 mps 740 mmHg 58%
    14:00 +11°C° 0 mm 0 mps 739 mmHg 54%
    15:00 +10°C° 0 mm 0 mps 739 mmHg 58%
    16:00 +9°C° 0 mm 0 mps 739 mmHg 62%
    17:00 +8°C° 0 mm 0 mps 739 mmHg 66%
    18:00 +9°C° 0 mm 1 mps 740 mmHg 65%
    19:00 +9°C° 0 mm 1 mps 740 mmHg 65%
    20:00 +8°C° 0 mm 2 mps 740 mmHg 64%
    21:00 +8°C° 0 mm 2 mps 740 mmHg 66%
    22:00 +8°C° 0 mm 2 mps 740 mmHg 68%
    23:00 +7°C° 0 mm 2 mps 739 mmHg 70%

    14 December, Saturday

    Time Temperature Precipitation Wind Pressure Humidity
    00:00 +7°C° 0 mm 2 mps 739 mmHg 71%
    01:00 +7°C° 0 mm 2 mps 739 mmHg 71%
    02:00 +6°C° 0 mm 2 mps 739 mmHg 72%
    03:00 +6°C° 0 mm 2 mps 739 mmHg 69%
    04:00 +6°C° 0 mm 2 mps 739 mmHg 67%
    05:00 +6°C° 0 mm 2 mps 738 mmHg 64%
    06:00 +5°C° 0 mm 3 mps 738 mmHg 62%
    07:00 +5°C° 0 mm 3 mps 738 mmHg 59%
    08:00 +5°C° 0 mm 3 mps 738 mmHg 56%
    09:00 +8°C° 0 mm 2 mps 738 mmHg 50%
    10:00 +9°C° 0 mm 2 mps 738 mmHg 45%
    11:00 +12°C° 0 mm 1 mps 738 mmHg 39%
    12:00 +13°C° 0 mm 1 mps 738 mmHg 36%
    13:00 +14°C° 0 mm 1 mps 737 mmHg 33%
    14:00 +15°C° 0 mm 1 mps 737 mmHg 31%
    15:00 +14°C° 0 mm 2 mps 737 mmHg 33%
    16:00 +12°C° 0 mm 3 mps 737 mmHg 35%
    17:00 +11°C° 0 mm 3 mps 737 mmHg 37%
    18:00 +10°C° 0 mm 3 mps 738 mmHg 40%
    19:00 +10°C° 0 mm 3 mps 738 mmHg 43%
    20:00 +10°C° 0 mm 3 mps 738 mmHg 46%
    21:00 +9°C° 0 mm 3 mps 739 mmHg 51%
    22:00 +9°C° 0 mm 2 mps 739 mmHg 57%
    23:00 +9°C° 0 mm 1 mps 739 mmHg 62%
    Show more